Change the Weather History Date:

Thursday, November 22, 2012

  Actual Average Record
Temperature  
Mean Temperature 42 °F -  
Max Temperature 48 °F - - ()
Min Temperature 36 °F - - ()
Degree Days  
Heating Degree Days 23    
Moisture  
Dew Point 37 °F    
Average Humidity 81    
Maximum Humidity 93    
Minimum Humidity 68    
Precipitation  
Precipitation 0.16 in - - ()
Sea Level Pressure  
Sea Level Pressure 29.65 in    
Wind  
Wind Speed 28 mph ()    
Max Wind Speed 38 mph    
Max Gust Speed 48 mph    
T = Trace of Precipitation, MM = Missing Value Source: Averaged Metar Reports

Daily Weather History Graph

Daily Weather History Graph

Search for Another Location

Airport or City:

Trip Planner

Search our weather history database for the weather conditions in past years. The results will help you decide how hot, cold, wet, or windy it might be!

Date:

Astronomy

Nov. 22, 2012 Rise Set
Actual Time 8:27 AM PST 4:30 PM PST
Civil Twilight 7:45 AM PST 5:12 PM PST
Nautical Twilight 7:00 AM PST 5:56 PM PST
Astronomical Twilight 6:17 AM PST 6:39 PM PST
Moon 2:02 PM PST (11/22) 2:06 AM PST (11/22)
Length of Visible Light 9h 26m
Length of Day
8h 02m
Waxing Gibbous, 72% of the Moon is Illuminated
Nov 22
Waxing Gibbous
Nov 28
Full
Dec 6
Last Quarter
Dec 13
New
Dec 19
First Quarter

Hourly Weather History & Observations

Time (PST) Temp. Windchill Dew Point Humidity Pressure Visibility Wind Dir Wind Speed Gust Speed Precip Events Conditions
12:00 AM 38.8 °F 26.5 °F 34.0 °F 83% 29.94 in - ENE 32.2 mph 38.0 mph N/A   Unknown
1:00 AM 38.8 °F 26.3 °F 34.0 °F 83% 29.93 in - ENE 33.4 mph 39.1 mph N/A   Unknown
2:00 AM 38.5 °F 25.7 °F 33.6 °F 83% 29.91 in - ENE 34.5 mph 42.6 mph N/A   Unknown
3:00 AM 38.5 °F 25.1 °F 33.4 °F 82% 29.90 in - NE 38.0 mph 43.7 mph N/A   Unknown
4:00 AM 39 °F - 34 °F 74% 29.87 in - ENE 38.0 mph - -  
4:00 AM 39.2 °F 26.1 °F 33.6 °F 80% 29.87 in - ENE 38.0 mph 44.9 mph N/A   Unknown
5:00 AM 39.7 °F 27.0 °F 33.6 °F 79% 29.83 in - ENE 36.8 mph 44.9 mph N/A   Unknown
6:00 AM 40.1 °F 27.4 °F 33.8 °F 78% 29.81 in - ENE 38.0 mph 48.3 mph N/A   Unknown
7:00 AM 41.2 °F 29.7 °F 34.3 °F 77% 29.76 in - ENE 32.2 mph 42.6 mph N/A   Unknown
8:00 AM 41.2 °F 29.4 °F 33.8 °F 75% 29.71 in - ENE 34.5 mph 42.6 mph N/A   Unknown
9:00 AM 41.9 °F 31.5 °F 33.3 °F 71% 29.70 in - East 27.6 mph 36.8 mph N/A   Unknown
10:00 AM 44 °F - 37 °F 68% 29.64 in - East 26.5 mph - -  
10:00 AM 44.4 °F 35.1 °F 36.9 °F 75% 29.64 in - East 26.5 mph 35.7 mph 0.02 in   Unknown
11:00 AM 43.3 °F 33.6 °F 37.0 °F 78% 29.61 in - ESE 26.5 mph 33.4 mph 0.04 in   Unknown
12:00 PM 40.5 °F 29.5 °F 37.9 °F 91% 29.58 in - East 27.6 mph 43.7 mph 0.09 in   Unknown
1:00 PM 40.5 °F 28.4 °F 38.5 °F 93% 29.55 in - ENE 34.5 mph 40.3 mph 0.02 in   Unknown
2:00 PM 42.4 °F 31.8 °F 38.8 °F 87% 29.55 in - ENE 29.9 mph - N/A   Unknown
3:00 PM 43.3 °F 34.5 °F 37.9 °F 81% 29.54 in - East 21.9 mph 34.5 mph N/A   Unknown
4:00 PM 43 °F - 38 °F 76% 29.50 in - East 25.3 mph - -  
4:00 PM 42.6 °F 32.8 °F 37.9 °F 83% 29.50 in - East 25.3 mph 36.8 mph N/A   Unknown
5:00 PM 42.3 °F 33.3 °F 37.9 °F 85% 29.49 in - East 20.7 mph 26.5 mph 0.02 in   Unknown
6:00 PM 42.6 °F 32.4 °F 38.7 °F 86% 29.46 in - ENE 27.6 mph - 0.01 in   Unknown
7:00 PM 45.0 °F 35.4 °F 41.4 °F 87% 29.44 in - SSE 28.8 mph - 0.02 in   Unknown
8:00 PM 44.4 °F 33.4 °F 41.4 °F 89% 29.46 in - SSE 38.0 mph 48.3 mph 0.07 in   Unknown
9:00 PM 45.5 °F 35.5 °F 40.3 °F 82% 29.51 in - SSE 33.4 mph - N/A   Unknown
10:00 PM 45 °F - 40 °F 76% 29.52 in - SE 24.2 mph - -  
10:00 PM 45.3 °F 36.7 °F 39.9 °F 81% 29.52 in - SE 24.2 mph - N/A   Unknown
11:00 PM 45.1 °F 39.9 °F 40.8 °F 85% 29.56 in - South 10.4 mph 23.0 mph 0.27 in   Unknown